User: anonymous   Login
Location: Kalberh�ni
(46.4610°N, 7.2453°E)
Time: 20:01:30
(UTC+00:00)
Language:

FENGYUN 1C DEB - Orbit

View from above orbital plane
View from above orbital plane
View from above satellite
View from above satellite

Ground track
Ground track

The orbit data is extracted from the following two-line orbital elements,

1 32350U 99025CYT 22023.42136477  .00000856  00000-0  17196-3 0  9997
2 32350  98.4228  81.4309 0317249 281.0688  75.4979 14.37333542770529
Epoch (UTC): 23 January 2022 10:06:45
Eccentricity: 0.0317249
inclination: 98.4228°
perigee height: 540 km
apogee height: 994 km
right ascension of ascending node: 81.4309°
argument of perigee: 281.0688°
revolutions per day: 14.37333542
mean anomaly at epoch: 75.4979°
orbit number at epoch: 77052

The dashed part of the orbit path shows where the satellite is in the earth's shadow,  

DLR